"startDT [UTC]","vpos","CH4 [ppm]","stdev(CH4) [ppm]","CO2 [ppm]","stdev(CO2) [ppm]","H2O_reported [%]","stdev(H2O_reported)","CavityPressure [torr]","CavityTemp [C]","OutletValve","CH4_dry [ppm]","CO2_dry [ppm]","DasTemp [C]","EtalonTemp [C]","WarmBoxTemp [C]","MPVPosition","T_ECpre [C]","T_EC1 [C]","T_EC2 [C]","p_inlet [hPa]","p_in [hPa]","p_out [hPa]","T_inlet [C]","RH_inlet [%]","dwpt_inlet [C]","T_vent [C]","RH_vent [%]","dwpt_vent [C]","flow_vent [l min-1]","flow_inlet [l min-1]","dwpt_sample [C]","T_room [C]"
2015-10-23 00:00:00,0.0,1.94136,0.00049,398.205,0.039,0.1346,0.0021,139.999,45.000,31673.79931,1.94391,398.851,34.731,45.069,45.000,0.00,0.09,-272.75,-272.80,-6,521,-945,20.4,4.4,-21.9,20.8,4.4,-21.6,5.73,2.08,-11.5,27.0
2015-10-23 00:01:00,0.0,1.94128,0.00041,398.156,0.068,0.1341,0.0019,140.000,45.000,31674.82101,1.94389,398.801,34.710,45.069,45.000,0.00,0.09,-272.74,-272.81,-7,521,-945,20.4,4.4,-21.9,20.8,4.4,-21.6,5.73,1.86,-11.5,27.0
2015-10-23 00:02:00,0.0,1.94004,0.00074,397.978,0.083,0.1334,0.0015,140.002,45.000,31676.79925,1.94260,398.620,34.701,45.069,45.000,0.00,0.09,-272.76,-272.81,-7,521,-945,20.4,4.4,-22.0,20.7,4.4,-21.6,5.73,1.84,-11.5,27.0
2015-10-23 00:03:00,0.0,1.94039,0.00053,397.965,0.067,0.1339,0.0017,139.996,45.000,31673.72151,1.94292,398.605,34.690,45.069,45.000,0.00,0.09,-272.76,-272.81,-7,521,-945,20.5,4.4,-22.0,20.8,4.4,-21.7,5.73,2.05,-11.5,27.0
2015-10-23 00:04:00,0.0,1.94074,0.00053,398.006,0.051,0.1323,0.0010,139.997,45.000,31672.94557,1.94325,398.642,34.688,45.069,45.000,0.00,0.09,-272.75,-272.80,-7,521,-945,20.5,4.4,-22.1,20.8,4.4,-21.7,5.73,2.11,-11.5,27.0
2015-10-23 00:05:00,0.0,1.94185,0.00043,398.095,0.053,0.1329,0.0018,139.999,45.000,31673.20842,1.94438,398.731,34.692,45.069,45.000,0.00,0.09,-272.75,-272.81,-6,521,-945,20.4,4.4,-22.0,20.8,4.4,-21.7,5.73,1.92,-11.5,27.0
2015-10-23 00:06:00,0.0,1.94214,0.00064,398.086,0.091,0.1311,0.0014,139.999,45.000,31671.77481,1.94462,398.716,34.699,45.069,45.000,0.00,0.09,-272.75,-272.81,-6,521,-945,20.4,4.3,-22.1,20.8,4.4,-21.7,5.73,1.81,-11.5,27.0
2015-10-23 00:07:00,0.0,1.94184,0.00095,398.089,0.054,0.1297,0.0012,140.001,45.000,31674.28243,1.94438,398.712,34.690,45.069,45.000,0.00,0.09,-272.75,-272.80,-7,521,-945,20.4,4.3,-22.3,20.7,4.3,-21.9,5.73,2.00,-11.5,27.0
2015-10-23 00:08:00,0.0,1.94162,0.00058,398.047,0.049,0.1274,0.0019,139.998,45.000,31671.75947,1.94403,398.657,34.688,45.069,45.000,0.00,0.09,-272.75,-272.80,-7,521,-945,20.4,4.2,-22.5,20.7,4.3,-22.1,5.73,2.13,-11.5,27.0
2015-10-23 00:09:00,0.0,1.94267,0.00139,398.059,0.109,0.1252,0.0020,140.001,45.000,31671.19670,1.94508,398.662,34.688,45.069,45.000,0.00,0.09,-272.75,-272.81,-7,521,-945,20.4,4.1,-22.6,20.7,4.2,-22.2,5.73,1.98,-11.5,27.0
2015-10-23 00:10:00,0.0,1.94065,0.00109,397.918,0.067,0.1232,0.0018,139.997,45.000,31670.53837,1.94310,398.512,34.689,45.069,45.000,0.00,0.09,-272.75,-272.81,-7,521,-945,20.4,4.1,-22.7,20.7,4.2,-22.3,5.73,1.81,-11.5,27.0
2015-10-23 00:11:00,0.0,1.94020,0.00049,397.857,0.022,0.1227,0.0019,140.000,45.000,31672.56066,1.94251,398.445,34.689,45.069,45.000,0.00,0.09,-272.75,-272.81,-6,521,-945,20.4,4.1,-22.8,20.7,4.1,-22.5,5.73,1.93,-11.5,27.0
2015-10-23 00:12:00,0.0,1.94068,0.00086,397.898,0.042,0.1239,0.0014,140.000,45.000,31671.39869,1.94302,398.492,34.690,45.069,45.000,0.00,0.09,-272.75,-272.81,-6,521,-945,20.4,4.1,-22.7,20.8,4.1,-22.4,5.73,2.13,-11.5,27.0
2015-10-23 00:13:00,0.0,1.94407,0.00079,398.086,0.046,0.1262,0.0021,140.000,45.000,31672.17061,1.94639,398.688,34.699,45.069,45.000,0.00,0.09,-272.75,-272.81,-7,521,-945,20.5,4.2,-22.5,20.7,4.2,-22.3,5.73,2.02,-11.5,27.0
2015-10-23 00:14:00,0.0,1.94368,0.00085,398.061,0.047,0.1272,0.0019,140.000,45.000,31671.81689,1.94620,398.673,34.710,45.069,45.000,0.00,0.09,-272.74,-272.81,-8,521,-945,20.4,4.2,-22.4,20.7,4.2,-22.2,5.73,1.83,-11.5,27.0
2015-10-23 00:15:00,0.0,1.94439,0.00069,398.104,0.052,0.1279,0.0016,139.999,45.000,31672.21201,1.94677,398.718,34.713,45.069,45.000,0.00,0.09,-272.75,-272.81,-7,521,-945,20.4,4.2,-22.5,20.7,4.3,-22.1,5.73,1.89,-11.5,27.0
2015-10-23 00:16:00,0.0,1.94457,0.00125,398.095,0.041,0.1296,0.0022,140.001,45.000,31672.60081,1.94710,398.716,34.725,45.069,45.000,0.00,0.09,-272.76,-272.80,-6,521,-945,20.4,4.3,-22.3,20.7,4.3,-22.0,5.73,2.10,-11.5,27.0
2015-10-23 00:17:00,0.0,1.94204,0.00070,398.004,0.056,0.1328,0.0016,139.999,45.000,31673.15978,1.94464,398.643,34.746,45.068,45.000,0.00,0.09,-272.75,-272.81,-6,521,-945,20.4,4.4,-22.0,20.7,4.4,-21.8,5.73,2.08,-11.5,27.0
2015-10-23 00:18:00,0.0,1.94032,0.00058,397.889,0.036,0.1355,0.0020,139.999,45.000,31672.49688,1.94298,398.540,34.735,45.068,45.000,0.00,0.09,-272.75,-272.81,-7,521,-945,20.4,4.4,-21.8,20.7,4.4,-21.6,5.73,1.85,-11.5,27.1
2015-10-23 00:19:00,0.0,1.93876,0.00048,397.852,0.032,0.1385,0.0018,139.998,45.000,31672.24822,1.94141,398.516,34.729,45.068,45.000,0.00,0.09,-272.75,-272.81,-7,521,-945,20.4,4.5,-21.6,20.7,4.5,-21.4,5.73,1.85,-11.5,27.0
2015-10-23 00:20:00,0.0,1.93830,0.00047,397.808,0.042,0.1411,0.0020,140.000,45.000,31670.40880,1.94103,398.484,34.695,45.069,45.000,0.00,0.09,-272.75,-272.80,-7,521,-945,20.4,4.6,-21.4,20.7,4.6,-21.2,5.73,2.07,-11.5,26.9
2015-10-23 00:21:00,0.0,1.93783,0.00054,397.795,0.051,0.1430,0.0014,140.000,45.000,31670.40711,1.94056,398.479,34.688,45.069,45.000,0.00,0.09,-272.74,-272.81,-7,521,-945,20.4,4.7,-21.3,20.7,4.7,-21.1,5.73,2.10,-11.5,26.9
2015-10-23 00:22:00,0.0,1.93736,0.00040,397.869,0.047,0.1469,0.0022,139.997,45.000,31670.38207,1.94021,398.574,34.686,45.069,45.000,0.00,0.09,-272.75,-272.81,-6,521,-945,20.4,4.8,-21.1,20.7,4.8,-20.9,5.73,1.89,-11.5,27.0
2015-10-23 00:23:00,0.0,1.93673,0.00038,397.882,0.028,0.1508,0.0021,139.999,45.000,31672.30910,1.93963,398.606,34.663,45.069,45.000,0.00,0.09,-272.75,-272.81,-6,521,-945,20.4,4.9,-20.8,20.7,4.8,-20.6,5.73,1.83,-11.5,27.0
2015-10-23 00:24:00,0.0,1.93569,0.00048,397.834,0.034,0.1564,0.0030,140.000,45.000,31672.00746,1.93871,398.584,34.648,45.069,45.000,0.00,0.09,-272.75,-272.80,-7,521,-945,20.4,5.0,-20.5,20.7,5.0,-20.3,5.73,2.04,-11.5,27.0
2015-10-23 00:25:00,0.0,1.93572,0.00053,397.968,0.063,0.1622,0.0028,139.999,45.000,31673.63394,1.93876,398.744,34.658,45.069,45.000,0.00,0.09,-272.75,-272.81,-8,521,-945,20.4,5.2,-20.0,20.7,5.2,-19.9,5.73,2.12,-11.5,27.0
2015-10-23 00:26:00,0.0,1.93754,0.00067,398.307,0.169,0.1611,0.0022,140.002,45.000,31673.27934,1.94062,399.081,34.675,45.069,45.000,0.00,0.09,-272.75,-272.82,-7,521,-945,20.4,5.2,-20.0,20.7,5.2,-19.7,5.73,1.92,-11.5,27.0
2015-10-23 00:27:00,0.0,1.93764,0.00106,398.210,0.146,0.1581,0.0019,140.002,45.000,31673.33691,1.94064,398.966,34.682,45.069,45.000,0.00,0.09,-272.75,-272.81,-7,521,-945,20.4,5.1,-20.3,20.7,5.2,-19.9,5.73,1.81,-11.5,27.0
2015-10-23 00:28:00,0.0,1.94096,0.00164,398.214,0.114,0.1566,0.0019,140.000,45.000,31670.20519,1.94377,398.970,34.677,45.069,45.000,0.00,0.09,-272.75,-272.80,-6,521,-945,20.4,5.1,-20.4,20.7,5.1,-20.1,5.73,2.00,-11.5,27.0
2015-10-23 00:29:00,0.0,1.94851,0.00665,398.288,0.273,0.1518,0.0019,139.998,45.000,31670.77298,1.95085,399.006,34.643,45.069,45.000,0.00,0.09,-272.76,-272.81,-7,521,-945,20.4,4.9,-20.7,20.7,5.0,-20.3,5.73,2.13,-11.5,27.1
2015-10-23 00:30:00,0.0,1.95572,0.00148,398.591,0.087,0.1491,0.0023,140.001,45.000,31670.44870,1.95877,399.313,34.590,45.069,45.000,0.00,0.09,-272.75,-272.81,-7,521,-945,20.4,4.8,-20.9,20.7,4.9,-20.5,5.73,1.96,-11.5,27.0
2015-10-23 00:31:00,0.0,1.95894,0.00196,398.683,0.081,0.1466,0.0015,140.002,45.000,31666.44319,1.96157,399.384,34.533,45.069,45.000,0.00,0.09,-272.75,-272.80,-8,521,-945,20.4,4.8,-21.1,20.7,4.8,-20.7,5.73,1.81,-11.5,27.0
2015-10-23 00:32:00,0.0,1.96264,0.00212,398.782,0.068,0.1482,0.0020,139.999,45.000,31663.24389,1.96557,399.496,34.467,45.069,45.000,0.00,0.09,-272.75,-272.81,-7,521,-945,20.4,4.8,-21.0,20.7,4.8,-20.7,5.73,1.94,-11.6,27.0
2015-10-23 00:33:00,0.0,1.95904,0.00062,398.676,0.037,0.1477,0.0024,140.001,44.999,31663.16084,1.96190,399.385,34.438,45.069,45.000,0.00,0.09,-272.75,-272.81,-7,521,-945,20.4,4.8,-21.0,20.7,4.8,-20.7,5.73,2.12,-11.6,27.0
2015-10-23 00:34:00,0.0,1.95707,0.00124,398.588,0.070,0.1438,0.0012,140.000,45.000,31662.84212,1.95989,399.281,34.429,45.069,45.000,0.00,0.09,-272.74,-272.81,-6,521,-944,20.4,4.7,-21.3,20.7,4.8,-20.9,5.73,2.05,-11.6,27.0
2015-10-23 00:35:00,0.0,1.96036,0.00652,398.682,0.138,0.1365,0.0026,140.002,45.000,31663.88809,1.96312,399.339,34.392,45.069,45.000,0.00,0.09,-272.74,-272.81,-7,521,-944,20.3,4.5,-21.8,20.7,4.6,-21.3,5.73,1.85,-11.6,27.0
2015-10-23 00:36:00,0.0,1.95195,0.00105,398.472,0.058,0.1298,0.0019,139.999,45.000,31662.88732,1.95452,399.097,34.381,45.069,45.001,0.00,0.09,-272.76,-272.81,-7,521,-944,20.3,4.3,-22.3,20.7,4.4,-21.7,5.73,1.86,-11.6,27.0
2015-10-23 00:37:00,0.0,1.95146,0.00063,398.407,0.038,0.1284,0.0020,140.001,45.000,31664.16819,1.95396,399.025,34.395,45.069,45.000,0.00,0.09,-272.76,-272.81,-8,521,-944,20.3,4.2,-22.4,20.7,4.3,-22.0,5.73,2.05,-11.6,27.0
2015-10-23 00:38:00,0.0,1.95100,0.00216,398.371,0.055,0.1334,0.0023,140.000,45.000,31664.48606,1.95343,399.009,34.407,45.069,45.000,0.00,0.09,-272.75,-272.80,-7,521,-944,20.3,4.4,-22.1,20.7,4.4,-21.9,5.73,2.12,-11.6,27.0
2015-10-23 00:39:00,0.0,1.95796,0.00095,398.569,0.039,0.1379,0.0015,140.001,45.000,31663.59085,1.96056,399.230,34.438,45.069,45.000,0.00,0.09,-272.75,-272.82,-7,521,-944,20.3,4.5,-21.7,20.7,4.5,-21.5,5.73,1.93,-11.6,27.0
2015-10-23 00:40:00,0.0,1.95649,0.00122,398.527,0.039,0.1409,0.0020,139.998,45.000,31662.01137,1.95934,399.206,34.436,45.069,45.000,0.00,0.09,-272.75,-272.82,-6,521,-944,20.3,4.6,-21.5,20.7,4.6,-21.3,5.73,1.81,-11.6,27.0
2015-10-23 00:41:00,0.0,1.95835,0.00303,398.607,0.087,0.1388,0.0022,140.000,45.000,31661.14076,1.96075,399.271,34.439,45.068,44.999,0.00,0.09,-272.75,-272.80,-7,521,-945,20.3,4.6,-21.6,20.7,4.6,-21.2,5.73,1.97,-11.7,27.0
2015-10-23 00:42:00,0.0,1.96473,0.00143,398.867,0.065,0.1339,0.0022,140.001,45.000,31660.16083,1.96734,399.511,34.438,45.068,45.000,0.00,0.09,-272.76,-272.81,-8,521,-944,20.3,4.4,-22.0,20.7,4.5,-21.5,5.73,2.13,-11.6,27.0
2015-10-23 00:43:00,0.0,1.95892,0.00205,398.741,0.069,0.1315,0.0016,140.003,45.000,31661.55309,1.96173,399.376,34.437,45.068,45.000,0.00,0.09,-272.76,-272.81,-7,521,-944,20.3,4.3,-22.2,20.7,4.4,-21.7,5.73,2.01,-11.7,27.0
2015-10-23 00:44:00,0.0,1.95386,0.00073,398.582,0.039,0.1282,0.0020,140.002,45.000,31661.48738,1.95631,399.198,34.441,45.069,45.000,0.00,0.09,-272.75,-272.81,-7,521,-944,20.3,4.3,-22.4,20.7,4.3,-22.0,5.73,1.82,-11.7,26.9
2015-10-23 00:45:00,0.0,1.95445,0.00075,398.617,0.031,0.1271,0.0015,139.999,45.000,31660.40235,1.95694,399.229,34.482,45.069,45.000,0.00,0.09,-272.75,-272.80,-6,521,-944,20.3,4.2,-22.5,20.7,4.3,-22.1,5.73,1.90,-11.6,26.9
2015-10-23 00:46:00,0.0,1.95297,0.00041,398.571,0.032,0.1254,0.0018,139.997,45.000,31658.70672,1.95540,399.173,34.500,45.068,44.999,0.00,0.09,-272.76,-272.81,-7,521,-944,20.3,4.2,-22.6,20.7,4.2,-22.2,5.73,2.11,-11.7,26.9
2015-10-23 00:47:00,0.0,1.95103,0.00064,398.509,0.036,0.1238,0.0023,139.999,45.000,31659.99261,1.95349,399.105,34.508,45.068,44.999,0.00,0.09,-272.75,-272.81,-7,521,-944,20.3,4.1,-22.8,20.7,4.2,-22.3,5.73,2.06,-11.7,27.0
2015-10-23 00:48:00,0.0,1.95053,0.00056,398.490,0.045,0.1236,0.0017,139.999,45.000,31661.58854,1.95293,399.084,34.516,45.068,44.999,0.00,0.09,-272.74,-272.81,-8,521,-944,20.3,4.1,-22.8,20.7,4.2,-22.4,5.73,1.85,-11.7,27.0
2015-10-23 00:49:00,0.0,1.94936,0.00054,398.396,0.041,0.1228,0.0015,140.000,45.000,31661.61010,1.95173,398.986,34.518,45.068,44.999,0.00,0.09,-272.75,-272.81,-7,521,-944,20.3,4.1,-22.8,20.7,4.2,-22.4,5.73,1.86,-11.7,26.9
2015-10-23 00:50:00,0.0,1.94852,0.00115,398.331,0.075,0.1229,0.0017,139.999,45.000,31660.30343,1.95097,398.925,34.525,45.068,44.999,0.00,0.09,-272.76,-272.81,-7,521,-944,20.3,4.1,-22.8,20.7,4.2,-22.4,5.73,2.07,-11.7,26.9
2015-10-23 00:51:00,0.0,1.94655,0.00079,398.245,0.040,0.1233,0.0015,140.000,45.000,31660.84797,1.94885,398.834,34.532,45.069,45.000,0.00,0.09,-272.75,-272.81,-6,521,-944,20.4,4.1,-22.8,20.7,4.2,-22.4,5.73,2.10,-11.7,26.9
2015-10-23 00:52:00,0.0,1.94756,0.00060,398.278,0.044,0.1224,0.0014,139.999,45.000,31658.48474,1.94998,398.867,34.509,45.069,45.000,0.00,0.09,-272.75,-272.81,-7,521,-944,20.4,4.1,-22.9,20.7,4.1,-22.5,5.73,1.88,-11.7,27.0
2015-10-23 00:53:00,0.0,1.94682,0.00128,398.226,0.065,0.1227,0.0019,139.999,45.000,31661.00470,1.94915,398.814,34.501,45.069,45.000,0.00,0.09,-272.75,-272.81,-7,521,-944,20.4,4.1,-22.9,20.7,4.1,-22.5,5.73,1.83,-11.7,27.1
2015-10-23 00:54:00,0.0,1.94816,0.00090,398.283,0.039,0.1221,0.0017,139.999,45.000,31661.59639,1.95051,398.869,34.502,45.069,45.000,0.00,0.09,-272.75,-272.81,-8,521,-944,20.4,4.0,-22.9,20.7,4.1,-22.5,5.73,2.05,-11.7,27.1
2015-10-23 00:55:00,0.0,1.94865,0.00185,398.331,0.059,0.1209,0.0017,139.999,45.000,31661.77924,1.95106,398.912,34.500,45.069,45.000,0.00,0.09,-272.75,-272.81,-7,521,-944,20.4,4.0,-23.0,20.7,4.1,-22.5,5.73,2.12,-11.7,27.0
2015-10-23 00:56:00,0.0,1.94616,0.00047,398.271,0.033,0.1227,0.0019,139.998,45.000,31662.20604,1.94850,398.860,34.503,45.069,45.000,0.00,0.09,-272.75,-272.81,-6,521,-944,20.4,4.1,-22.9,20.7,4.1,-22.5,5.73,1.90,-11.7,27.0
2015-10-23 00:57:00,0.0,1.94498,0.00051,398.277,0.047,0.1247,0.0019,140.000,45.000,31662.65127,1.94741,398.875,34.506,45.069,45.000,0.00,0.09,-272.75,-272.81,-7,521,-944,20.5,4.1,-22.7,20.7,4.2,-22.4,5.73,1.82,-11.7,27.0
2015-10-23 00:58:00,0.0,1.94400,0.00064,398.234,0.029,0.1266,0.0017,140.000,45.000,31662.05148,1.94641,398.842,34.546,45.069,45.000,0.00,0.09,-272.75,-272.80,-7,521,-944,20.5,4.2,-22.6,20.8,4.2,-22.2,5.73,2.03,-11.7,27.2
2015-10-23 00:59:00,0.0,1.94217,0.00099,398.232,0.028,0.1268,0.0017,139.999,45.000,31662.33161,1.94474,398.842,34.563,45.069,45.000,0.00,0.09,-272.76,-272.81,-8,521,-944,20.5,4.2,-22.4,20.8,4.2,-22.1,5.73,2.12,-11.7,27.2
2015-10-23 01:00:00,0.0,1.93937,0.00070,398.097,0.034,0.1286,0.0017,139.997,45.000,31662.76761,1.94191,398.716,34.563,45.069,45.000,0.00,0.09,-272.75,-272.81,-7,521,-944,20.5,4.2,-22.3,20.8,4.3,-22.0,5.73,1.91,-11.7,27.1
2015-10-23 01:01:00,0.0,1.93833,0.00049,398.042,0.038,0.1300,0.0022,140.000,45.000,31665.83765,1.94082,398.667,34.563,45.069,45.000,0.00,0.09,-272.74,-272.80,-7,521,-944,20.5,4.3,-22.2,20.8,4.3,-21.9,5.73,1.81,-11.6,27.1
2015-10-23 01:02:00,0.0,1.93612,0.00074,398.038,0.084,0.1317,0.0018,139.998,45.000,31666.76003,1.93867,398.667,34.563,45.069,45.000,0.00,0.09,-272.75,-272.81,-7,521,-944,20.5,4.3,-22.0,20.8,4.4,-21.8,5.73,2.02,-11.6,27.1
2015-10-23 01:03:00,0.0,1.93541,0.00072,398.103,0.038,0.1338,0.0015,140.001,45.000,31668.43921,1.93802,398.746,34.564,45.069,45.000,0.00,0.09,-272.75,-272.82,-7,521,-944,20.5,4.4,-22.0,20.8,4.4,-21.6,5.73,2.13,-11.6,27.2
2015-10-23 01:04:00,0.0,1.93464,0.00073,398.012,0.048,0.1333,0.0016,140.000,45.000,31667.74033,1.93716,398.652,34.563,45.069,45.000,0.00,0.09,-272.74,-272.81,-8,521,-944,20.5,4.4,-21.9,20.8,4.4,-21.6,5.73,1.91,-11.6,27.2
2015-10-23 01:05:00,0.0,1.93638,0.00179,398.125,0.116,0.1319,0.0016,139.999,45.000,31666.90931,1.93889,398.757,34.563,45.069,45.000,0.00,0.09,-272.74,-272.80,-8,521,-944,20.6,4.3,-22.0,20.8,4.4,-21.7,5.73,1.81,-11.6,27.2
2015-10-23 01:06:00,0.0,1.93824,0.00239,398.335,0.185,0.1296,0.0019,140.000,45.000,31669.94136,1.94073,398.956,34.563,45.069,45.000,0.00,0.09,-272.76,-272.81,-7,522,-945,20.6,4.3,-22.2,20.8,4.3,-21.8,5.73,2.02,-11.6,27.2
2015-10-23 01:07:00,0.0,1.93595,0.00202,398.199,0.167,0.1291,0.0019,139.998,45.000,31669.80864,1.93840,398.817,34.568,45.069,45.000,0.00,0.09,-272.76,-272.81,-7,521,-945,20.6,4.2,-22.3,20.8,4.3,-21.9,5.73,2.12,-11.6,27.2
2015-10-23 01:08:00,0.0,1.93363,0.00087,398.026,0.078,0.1273,0.0020,140.000,45.000,31672.21434,1.93612,398.643,34.569,45.069,45.000,0.00,0.09,-272.75,-272.81,-7,521,-944,20.6,4.2,-22.4,20.8,4.3,-22.0,5.73,1.91,-11.6,27.2
2015-10-23 01:09:00,0.0,1.93384,0.00128,397.982,0.108,0.1258,0.0022,139.998,45.000,31673.59096,1.93627,398.587,34.597,45.069,45.001,0.00,0.09,-272.75,-272.81,-8,521,-945,20.6,4.1,-22.6,20.8,4.2,-22.2,5.73,1.81,-11.6,27.2
2015-10-23 01:10:00,0.0,1.93320,0.00046,397.957,0.031,0.1236,0.0012,139.998,45.000,31674.35267,1.93553,398.548,34.606,45.069,45.000,0.00,0.09,-272.76,-272.81,-8,521,-944,20.6,4.1,-22.7,20.8,4.2,-22.3,5.73,2.03,-11.6,27.2
2015-10-23 01:11:00,0.0,1.93714,0.00340,398.242,0.221,0.1236,0.0012,140.000,45.000,31674.08296,1.93912,398.821,34.627,45.069,45.000,0.00,0.09,-272.75,-272.81,-7,522,-945,20.6,4.0,-22.8,20.8,4.1,-22.4,5.73,2.12,-11.6,27.3
2015-10-23 01:12:00,0.0,1.93617,0.00531,398.219,0.370,0.1249,0.0021,140.000,45.000,31673.79924,1.93899,398.831,34.648,45.069,45.000,0.00,0.09,-272.74,-272.81,-7,522,-944,20.6,4.1,-22.6,20.8,4.1,-22.4,5.73,1.90,-11.6,27.3
2015-10-23 01:13:00,0.0,1.93238,0.00042,397.980,0.030,0.1284,0.0014,139.999,45.000,31673.13748,1.93482,398.596,34.683,45.069,45.000,0.00,0.09,-272.76,-272.81,-7,521,-945,20.6,4.2,-22.4,20.8,4.2,-22.1,5.73,1.82,-11.6,27.3
2015-10-23 01:14:00,0.0,1.93220,0.00033,397.982,0.022,0.1280,0.0015,140.000,45.000,31672.33905,1.93465,398.597,34.688,45.069,45.000,0.00,0.09,-272.76,-272.80,-8,521,-945,20.6,4.2,-22.4,20.8,4.3,-22.1,5.73,2.05,-11.6,27.2
2015-10-23 01:15:00,0.0,1.93362,0.00149,398.079,0.095,0.1297,0.0019,140.001,45.000,31673.98715,1.93596,398.696,34.688,45.069,45.000,0.00,0.09,-272.74,-272.80,-8,522,-945,20.6,4.2,-22.3,20.8,4.3,-22.0,5.73,2.11,-11.6,27.2
2015-10-23 01:16:00,0.0,1.93551,0.00124,398.221,0.098,0.1318,0.0017,140.000,45.000,31674.01994,1.93799,398.853,34.690,45.069,45.000,0.00,0.09,-272.75,-272.81,-7,522,-945,20.6,4.3,-22.1,20.8,4.3,-21.8,5.73,1.87,-11.6,27.2
2015-10-23 01:17:00,0.0,1.93759,0.00141,398.312,0.079,0.1325,0.0014,140.000,45.000,31674.06980,1.94000,398.945,34.706,45.069,45.000,0.00,0.09,-272.75,-272.82,-7,522,-945,20.6,4.3,-22.1,20.8,4.4,-21.8,5.73,1.84,-11.6,27.2
2015-10-23 01:18:00,0.0,1.94040,0.00215,398.475,0.178,0.1320,0.0015,139.999,45.000,31673.31694,1.94310,399.116,34.734,45.069,45.000,0.00,0.09,-272.75,-272.80,-7,521,-945,20.6,4.3,-22.1,20.8,4.4,-21.8,5.73,2.09,-11.6,27.2
2015-10-23 01:19:00,0.0,1.93885,0.00352,398.373,0.273,0.1321,0.0016,140.001,45.000,31673.03397,1.94121,399.000,34.749,45.069,45.000,0.00,0.09,-272.75,-272.81,-8,521,-945,20.6,4.3,-22.1,20.8,4.4,-21.8,5.73,2.08,-11.6,27.2
2015-10-23 01:20:00,0.0,1.93656,0.00064,398.136,0.081,0.1314,0.0014,140.000,45.000,31672.08399,1.93924,398.774,34.750,45.069,45.000,0.00,0.09,-272.75,-272.81,-8,522,-944,20.6,4.3,-22.1,20.8,4.4,-21.8,5.73,1.83,-11.6,27.3
2015-10-23 01:21:00,0.0,1.93871,0.00125,398.274,0.088,0.1331,0.0016,140.001,45.000,31672.04539,1.94114,398.911,34.750,45.069,45.000,0.00,0.09,-272.75,-272.80,-7,522,-945,20.5,4.3,-22.1,20.8,4.4,-21.8,5.73,1.87,-11.6,27.2
2015-10-23 01:22:00,0.0,1.93961,0.00131,398.273,0.083,0.1326,0.0015,139.998,45.000,31674.67334,1.94211,398.908,34.739,45.069,45.000,0.00,0.09,-272.76,-272.80,-6,522,-945,20.6,4.3,-22.1,20.8,4.4,-21.8,5.73,2.12,-11.6,27.2
2015-10-23 01:23:00,0.0,1.94026,0.00123,398.238,0.065,0.1301,0.0012,139.999,45.000,31674.62335,1.94284,398.864,34.716,45.069,45.000,0.00,0.09,-272.75,-272.81,-7,522,-945,20.6,4.3,-22.2,20.8,4.4,-21.8,5.73,2.04,-11.6,27.2
2015-10-23 01:24:00,0.0,1.93660,0.00045,398.113,0.040,0.1308,0.0014,139.999,45.000,31673.45557,1.93914,398.740,34.745,45.069,45.000,0.00,0.09,-272.75,-272.81,-8,521,-945,20.6,4.2,-22.3,20.8,4.3,-21.9,5.73,1.81,-11.6,27.2
2015-10-23 01:25:00,0.0,1.93645,0.00033,398.079,0.040,0.1314,0.0016,140.001,45.000,31675.36297,1.93896,398.711,34.749,45.069,45.000,0.00,0.09,-272.75,-272.80,-8,522,-945,20.6,4.3,-22.2,20.8,4.3,-21.9,5.73,1.90,-11.5,27.3
2015-10-23 01:26:00,0.0,1.93669,0.00044,398.049,0.039,0.1323,0.0017,139.998,45.000,31675.31733,1.93923,398.685,34.749,45.069,45.000,0.00,0.09,-272.76,-272.81,-7,522,-945,20.5,4.3,-22.1,20.8,4.4,-21.8,5.73,2.13,-11.5,27.2
2015-10-23 01:27:00,0.0,1.93644,0.00038,398.045,0.025,0.1319,0.0012,139.999,45.000,31676.24829,1.93896,398.677,34.750,45.069,45.000,0.00,0.09,-272.75,-272.81,-6,521,-945,20.5,4.3,-22.1,20.8,4.4,-21.8,5.73,2.02,-11.5,27.2
2015-10-23 01:28:00,0.0,1.93606,0.00057,398.043,0.024,0.1327,0.0020,140.001,45.000,31676.57112,1.93863,398.679,34.743,45.069,45.000,0.00,0.09,-272.75,-272.80,-7,522,-945,20.5,4.3,-22.0,20.8,4.4,-21.7,5.73,1.80,-11.5,27.2
2015-10-23 01:29:00,0.0,1.93594,0.00055,398.063,0.035,0.1334,0.0023,139.998,45.000,31675.49513,1.93843,398.703,34.697,45.069,45.000,0.00,0.09,-272.75,-272.80,-8,521,-945,20.6,4.4,-21.9,20.8,4.4,-21.6,5.73,1.94,-11.5,27.2
2015-10-23 01:30:00,0.0,1.93539,0.00077,398.055,0.033,0.1375,0.0021,139.997,45.000,31677.32607,1.93806,398.715,34.688,45.069,45.000,0.00,0.09,-272.76,-272.82,-8,522,-945,20.6,4.5,-21.7,20.8,4.5,-21.5,5.73,2.14,-11.5,27.2
2015-10-23 01:31:00,0.0,1.93534,0.00052,398.052,0.046,0.1376,0.0014,140.002,45.000,31679.18698,1.93794,398.712,34.686,45.069,45.001,0.00,0.09,-272.75,-272.81,-7,522,-945,20.6,4.5,-21.7,20.8,4.5,-21.4,5.73,1.97,-11.5,27.2
2015-10-23 01:32:00,0.0,1.93527,0.00108,398.052,0.085,0.1375,0.0014,139.998,45.000,31677.41828,1.93797,398.715,34.684,45.069,45.001,0.00,0.09,-272.74,-272.81,-6,521,-945,20.6,4.5,-21.7,20.8,4.5,-21.4,5.73,1.80,-11.5,27.2
2015-10-23 01:33:00,0.0,1.93503,0.00111,398.074,0.095,0.1390,0.0019,139.999,45.000,31677.05247,1.93766,398.738,34.688,45.069,45.001,0.00,0.09,-272.76,-272.81,-7,521,-945,20.6,4.5,-21.5,20.8,4.6,-21.3,5.73,1.99,-11.5,27.2
2015-10-23 01:34:00,0.0,1.93669,0.00067,398.216,0.070,0.1400,0.0011,140.002,45.000,31676.53110,1.93932,398.886,34.687,45.069,45.000,0.00,0.09,-272.76,-272.81,-8,522,-945,20.6,4.5,-21.5,20.8,4.6,-21.2,5.73,2.14,-11.5,27.1
2015-10-23 01:35:00,0.0,1.93678,0.00045,398.286,0.096,0.1418,0.0021,139.998,45.000,31675.85726,1.93946,398.963,34.692,45.069,45.000,0.00,0.09,-272.74,-272.80,-8,522,-945,20.6,4.6,-21.4,20.8,4.6,-21.2,5.73,1.91,-11.5,27.2
2015-10-23 01:36:00,0.0,1.93666,0.00054,398.364,0.066,0.1436,0.0020,140.000,45.000,31678.20139,1.93939,399.056,34.712,45.069,45.000,0.00,0.09,-272.75,-272.81,-7,522,-945,20.5,4.6,-21.3,20.8,4.7,-21.0,5.73,1.81,-11.5,27.2
2015-10-23 01:37:00,0.0,1.93608,0.00151,398.187,0.090,0.1453,0.0015,139.999,45.000,31676.62966,1.93897,398.889,34.736,45.069,45.000,0.00,0.09,-272.76,-272.81,-7,522,-945,20.6,4.7,-21.2,20.8,4.7,-20.9,5.73,2.06,-11.5,27.2
2015-10-23 01:38:00,0.0,1.93313,0.00051,398.015,0.032,0.1466,0.0017,140.000,45.000,31677.40398,1.93594,398.719,34.731,45.069,45.000,0.00,0.09,-272.75,-272.80,-7,521,-945,20.5,4.7,-21.1,20.8,4.8,-20.8,5.73,2.11,-11.5,27.2
2015-10-23 01:39:00,0.0,1.93362,0.00096,398.018,0.060,0.1494,0.0018,139.999,45.000,31679.91365,1.93638,398.733,34.720,45.069,45.000,0.00,0.09,-272.74,-272.81,-8,522,-945,20.5,4.8,-20.9,20.8,4.8,-20.7,5.73,1.86,-11.5,27.2
2015-10-23 01:40:00,0.0,1.93580,0.00041,398.126,0.045,0.1508,0.0016,139.997,45.000,31677.86385,1.93867,398.851,34.731,45.069,45.000,0.00,0.09,-272.75,-272.81,-8,522,-945,20.5,4.8,-20.8,20.8,4.9,-20.6,5.73,1.85,-11.5,27.2
2015-10-23 01:41:00,0.0,1.93502,0.00050,398.071,0.053,0.1514,0.0018,139.999,45.000,31676.22469,1.93794,398.798,34.745,45.069,45.000,0.00,0.09,-272.75,-272.80,-7,522,-945,20.6,4.9,-20.7,20.8,4.9,-20.5,5.73,2.10,-11.5,27.1
2015-10-23 01:42:00,0.0,1.93371,0.00047,398.082,0.040,0.1514,0.0015,140.000,45.000,31677.58757,1.93665,398.808,34.748,45.069,45.000,0.00,0.09,-272.74,-272.80,-7,522,-945,20.5,4.9,-20.7,20.8,4.9,-20.5,5.73,2.06,-11.5,27.1
2015-10-23 01:43:00,0.0,1.93335,0.00050,398.056,0.042,0.1534,0.0014,139.999,45.000,31677.18148,1.93630,398.794,34.745,45.069,45.000,0.00,0.09,-272.75,-272.81,-7,522,-945,20.5,4.9,-20.6,20.8,4.9,-20.4,5.73,1.81,-11.5,27.2
2015-10-23 01:44:00,0.0,1.93336,0.00098,398.086,0.068,0.1543,0.0018,139.999,45.000,31677.03839,1.93620,398.822,34.750,45.069,45.000,0.00,0.09,-272.76,-272.81,-8,521,-945,20.6,4.9,-20.5,20.8,5.0,-20.3,5.73,1.90,-11.5,27.2
2015-10-23 01:45:00,0.0,1.93398,0.00089,398.221,0.080,0.1559,0.0015,139.998,45.000,31676.53689,1.93709,398.974,34.750,45.069,45.000,0.00,0.09,-272.74,-272.80,-7,522,-945,20.6,5.0,-20.4,20.8,5.0,-20.2,5.73,2.14,-11.5,27.2